Tracking 20241 objects as of 26-Jan-2020
HD Live streaming from Space Station
objects crossing your sky now

FENGYUN 1C DEB

Track FENGYUN 1C DEB now!
10-day predictions


NORAD ID: 31342
Int'l Code: 1999-025BQW
Perigee: 700.2 km
Apogee: 867.1 km
Inclination: 99.0 °
Period: 100.4 minutes
Semi major axis: 7154 km
RCS: 0.0151 m2 (small)
Launch date: May 10, 1999
Source: People's Republic of China (PRC)
Launch site: Taiyaun Space Center, China (TSC)

Note: This is SATELLITE DEBRIS
aabbcc
Your satellite tracking list
Your tracking list is empty




NASA's NSSDC Master Catalog

Two Line Element Set (TLE):
1 31342U 99025BQW 20025.46349745  .00000038  00000-0  28558-4 0  9992
2 31342  98.9776 248.9775 0116618  51.1015 310.0500 14.34555022671531
Source of the keplerian elements: AFSPC